Weather History for Cumberland, MD

Change the Weather History Date:

Monday, May 20, 2013

  Actual Average (KMRB) Record (KMRB)
Temperature  
Mean Temperature 73 °F 62 °F  
Max Temperature 86 °F 74 °F 96 °F (1996)
Min Temperature 60 °F 51 °F 31 °F (2002)
Degree Days  
Heating Degree Days 0 5  
Month to date heating degree days 131  
Since 1 July heating degree days 5188  
Cooling Degree Days 8 2  
Month to date cooling degree days 24  
Year to date cooling degree days 33  
Growing Degree Days 23 (Base 50)    
Moisture  
Dew Point 62 °F    
Average Humidity 76    
Maximum Humidity 100    
Minimum Humidity 40    
Precipitation  
Precipitation 0.00 in 0.13 in 2.56 in (1988)
Month to date precipitation 2.64  
Year to date precipitation 14.28  
Sea Level Pressure  
Sea Level Pressure 30.07 in    
Wind  
Wind Speed 1 mph (SSE)    
Max Wind Speed 9 mph    
Max Gust Speed -    
Visibility 9 miles    
Events      
T = Trace of Precipitation, MM = Missing Value Source: NWS Daily Summary

Daily Weather History Graph

Daily Weather History Graph

Search for Another Location

Airport:

Trip Planner

Search our weather history database for the weather conditions in past years. The results will help you decide how hot, cold, wet, or windy it might be!

Date:

Astronomy

May. 20, 2013 Rise Set
Actual Time 5:56 AM EDT 8:27 PM EDT
Civil Twilight 5:25 AM EDT 8:58 PM EDT
Nautical Twilight 4:47 AM EDT 9:36 PM EDT
Astronomical Twilight 4:04 AM EDT 10:19 PM EDT
Moon 3:33 PM EDT (5/20) 2:49 AM EDT (5/20)
Length of Visible Light 15h 32m
Length of Day
14h 30m
Waxing Gibbous, 75% of the Moon is Illuminated
May 20
Waxing Gibbous
May 25
Full
May 31
Last Quarter
Jun 8
New
Jun 16
First Quarter

Hourly Weather History & Observations

Time (EDT) Temp. Heat Index Dew Point Humidity Pressure Visibility Wind Dir Wind Speed Gust Speed Precip Events Conditions
12:14 AM 64.4 °F - 60.8 °F 88% 30.14 in 10.0 mi Calm Calm - N/A   Overcast
12:34 AM 62.6 °F - 60.8 °F 94% 30.13 in 10.0 mi Calm Calm - N/A   Overcast
12:54 AM 62.6 °F - 60.8 °F 94% 30.12 in 10.0 mi Calm Calm - N/A   Overcast
1:14 AM 62.6 °F - 60.8 °F 94% 30.12 in 10.0 mi Calm Calm - N/A   Overcast
1:34 AM 62.6 °F - 60.8 °F 94% 30.12 in 7.0 mi Calm Calm - N/A   Overcast
1:54 AM 62.6 °F - 60.8 °F 94% 30.11 in 10.0 mi Calm Calm - N/A   Overcast
2:14 AM 62.6 °F - 60.8 °F 94% 30.10 in 7.0 mi Calm Calm - N/A   Overcast
2:34 AM 62.6 °F - 60.8 °F 94% 30.09 in 7.0 mi Calm Calm - N/A   Mostly Cloudy
3:14 AM 62.6 °F - 60.8 °F 94% 30.09 in 5.0 mi Calm Calm - N/A   Mostly Cloudy
3:34 AM 62.6 °F - 60.8 °F 94% 30.09 in 7.0 mi Calm Calm - N/A   Overcast
3:54 AM 62.6 °F - 60.8 °F 94% 30.09 in 7.0 mi Calm Calm - N/A   Overcast
4:14 AM 60.8 °F - 60.8 °F 100% 30.08 in 5.0 mi Calm Calm - N/A   Scattered Clouds
4:34 AM 60.8 °F - 59.0 °F 94% 30.09 in 2.0 mi Calm Calm - N/A   Unknown
4:54 AM 60.8 °F - 59.0 °F 94% 30.09 in 3.0 mi Calm Calm - N/A   Mostly Cloudy
5:14 AM 62.6 °F - 60.8 °F 94% 30.09 in 5.0 mi Calm Calm - N/A   Overcast
5:34 AM 60.8 °F - 60.8 °F 100% 30.09 in 4.0 mi Calm Calm - N/A   Overcast
5:54 AM 60.8 °F - 60.8 °F 100% 30.10 in 4.0 mi Calm Calm - N/A   Overcast
6:14 AM 60.8 °F - 60.8 °F 100% 30.11 in 1.8 mi North 3.5 mph - N/A   Overcast
6:34 AM 60.8 °F - 60.8 °F 100% 30.11 in 1.8 mi Calm Calm - N/A   Scattered Clouds
6:54 AM 60.8 °F - 60.8 °F 100% 30.12 in 5.0 mi Calm Calm - N/A   Scattered Clouds
7:15 AM 62.6 °F - 60.8 °F 94% 30.12 in 5.0 mi Calm Calm - N/A   Mostly Cloudy
7:35 AM 60.8 °F - 60.8 °F 100% 30.12 in 3.0 mi Calm Calm - N/A   Overcast
7:55 AM 62.6 °F - 60.8 °F 94% 30.12 in 4.0 mi Calm Calm - N/A   Mostly Cloudy
8:15 AM 64.4 °F - 62.6 °F 94% 30.12 in 7.0 mi Calm Calm - N/A   Scattered Clouds
8:35 AM 66.2 °F - 64.4 °F 94% 30.12 in 10.0 mi Calm Calm - N/A   Clear
8:55 AM 68.0 °F - 62.6 °F 83% 30.12 in 10.0 mi Calm Calm - N/A   Clear
9:15 AM 69.8 °F - 62.6 °F 78% 30.12 in 10.0 mi Calm Calm - N/A   Clear
9:35 AM 69.8 °F - 62.6 °F 78% 30.12 in 10.0 mi Calm Calm - N/A   Clear
9:55 AM 71.6 °F - 62.6 °F 73% 30.11 in 10.0 mi Calm Calm - N/A   Clear
10:15 AM 71.6 °F - 62.6 °F 73% 30.11 in 10.0 mi Calm Calm - N/A   Scattered Clouds
10:35 AM 73.4 °F - 62.6 °F 69% 30.10 in 10.0 mi SE 4.6 mph - N/A   Scattered Clouds
10:55 AM 73.4 °F - 62.6 °F 69% 30.10 in 10.0 mi SSE 3.5 mph - N/A   Scattered Clouds
11:15 AM 77.0 °F - 62.6 °F 61% 30.10 in 10.0 mi South 4.6 mph - N/A   Clear
11:35 AM 77.0 °F - 62.6 °F 61% 30.10 in 10.0 mi Calm Calm - N/A   Clear
11:55 AM 77.0 °F - 62.6 °F 61% 30.09 in 10.0 mi SSE 3.5 mph - N/A   Clear
12:15 PM 78.8 °F - 62.6 °F 57% 30.08 in 10.0 mi SE 3.5 mph - N/A   Clear
12:35 PM 78.8 °F - 62.6 °F 57% 30.08 in 10.0 mi SSE 4.6 mph - N/A   Clear
12:55 PM 80.6 °F 81.5 °F 60.8 °F 51% 30.07 in 10.0 mi East 4.6 mph - N/A   Clear
1:15 PM 80.6 °F 81.5 °F 60.8 °F 51% 30.07 in 10.0 mi SE 5.8 mph - N/A   Clear
1:35 PM 82.4 °F 82.9 °F 60.8 °F 48% 30.05 in 10.0 mi SE 5.8 mph - N/A   Clear
1:55 PM 82.4 °F 82.5 °F 59.0 °F 45% 30.05 in 10.0 mi SE 6.9 mph - N/A   Clear
2:15 PM 82.4 °F 82.5 °F 59.0 °F 45% 30.04 in 10.0 mi ESE 5.8 mph - N/A   Clear
2:55 PM 86.0 °F 85.4 °F 59.0 °F 40% 30.03 in 10.0 mi Calm Calm - N/A   Clear
3:15 PM 86.0 °F 85.4 °F 59.0 °F 40% 30.02 in 10.0 mi SSW 5.8 mph - N/A   Clear
3:35 PM 86.0 °F 85.4 °F 59.0 °F 40% 30.02 in 10.0 mi SSE 6.9 mph - N/A   Clear
3:55 PM 86.0 °F 85.4 °F 59.0 °F 40% 30.01 in 10.0 mi Calm Calm - N/A   Clear
4:16 PM 84.2 °F 83.8 °F 59.0 °F 42% 30.01 in 10.0 mi Calm Calm - N/A   Scattered Clouds
4:36 PM 82.4 °F 82.9 °F 60.8 °F 48% 30.01 in 10.0 mi Calm Calm - N/A   Mostly Cloudy
4:56 PM 80.6 °F 81.5 °F 60.8 °F 51% 30.01 in 10.0 mi Calm Calm - N/A   Mostly Cloudy
5:16 PM 77.0 °F - 62.6 °F 61% 30.01 in 10.0 mi West 9.2 mph - N/A   Mostly Cloudy
5:36 PM 77.0 °F - 64.4 °F 65% 30.02 in 10.0 mi SW 4.6 mph - N/A   Mostly Cloudy
5:56 PM 77.0 °F - 66.2 °F 69% 30.01 in 10.0 mi South 6.9 mph - N/A   Scattered Clouds
6:16 PM 75.2 °F - 66.2 °F 73% 30.01 in 10.0 mi SSW 6.9 mph - N/A   Clear
6:36 PM 77.0 °F - 64.4 °F 65% 30.00 in 10.0 mi Calm Calm - N/A   Clear
6:56 PM 77.0 °F - 66.2 °F 69% 30.01 in 10.0 mi Calm Calm - N/A   Clear
7:16 PM 77.0 °F - 66.2 °F 69% 30.01 in 10.0 mi Calm Calm - N/A   Clear
7:36 PM 77.0 °F - 68.0 °F 74% 30.01 in 10.0 mi Calm Calm - N/A   Clear
7:56 PM 77.0 °F - 64.4 °F 65% 30.02 in 10.0 mi Calm Calm - N/A   Clear
8:16 PM 77.0 °F - 66.2 °F 69% 30.01 in 10.0 mi SE 5.8 mph - N/A   Clear
8:36 PM 73.4 °F - 66.2 °F 78% 30.01 in 10.0 mi SW 3.5 mph - N/A   Clear
8:56 PM 73.4 °F - 66.2 °F 78% 30.02 in 10.0 mi SW 3.5 mph - N/A   Clear
9:16 PM 71.6 °F - 66.2 °F 83% 30.02 in 10.0 mi SSW 3.5 mph - N/A   Clear
9:36 PM 71.6 °F - 66.2 °F 83% 30.02 in 10.0 mi SE 3.5 mph - N/A   Clear
9:56 PM 71.6 °F - 66.2 °F 83% 30.03 in 10.0 mi Calm Calm - N/A   Clear
10:16 PM 71.6 °F - 66.2 °F 83% 30.03 in 10.0 mi Calm Calm - N/A   Clear
10:36 PM 71.6 °F - 66.2 °F 83% 30.03 in 10.0 mi Calm Calm - N/A   Clear
11:16 PM 68.0 °F - 64.4 °F 88% 30.03 in 10.0 mi Calm Calm - N/A   Clear
11:36 PM 68.0 °F - 66.2 °F 94% 30.03 in 10.0 mi Calm Calm - N/A   Clear
11:56 PM 68.0 °F - 64.4 °F 88% 30.03 in 10.0 mi ENE 3.5 mph - N/A   Scattered Clouds